owner,sensor,date,latitude,longitude,vertical_datum,wind_speed,wind_to_direction,wind_speed_of_gust,qcFlag 
TCOON,ioos:station:TCOON:009:1,2011-04-01T00:00:00Z,27.8398,-97.0727,0.0,4.9,124.0,6.5,'11111222,11111222,11111222' 
TCOON,ioos:station:TCOON:009:1,2011-04-01T01:00:00Z,27.8398,-97.0727,0.0,3.3,131.0,5.8,'11111222,11111222,11111222' 
TCOON,ioos:station:TCOON:009:1,2011-04-01T03:00:00Z,27.8398,-97.0727,0.0,4.6,107.0,6.0,'11111222,11111222,11111222' 
TCOON,ioos:station:TCOON:009:1,2011-04-01T04:00:00Z,27.8398,-97.0727,0.0,4.6,124.0,6.7,'11111222,11111222,11111222' 
TCOON,ioos:station:TCOON:009:1,2011-04-01T05:00:00Z,27.8398,-97.0727,0.0,4.4,161.0,6.5,'11111222,11111222,11111222' 
TCOON,ioos:station:TCOON:009:1,2011-04-01T06:00:00Z,27.8398,-97.0727,0.0,3.3,151.0,4.8,'11111222,11111222,11111222' 
TCOON,ioos:station:TCOON:009:1,2011-04-01T07:00:00Z,27.8398,-97.0727,0.0,4.2,166.0,5.1,'11111222,11111222,11111222' 
TCOON,ioos:station:TCOON:009:1,2011-04-01T08:00:00Z,27.8398,-97.0727,0.0,3.3,168.0,5.6,'11111222,11111222,11111222' 
TCOON,ioos:station:TCOON:009:1,2011-04-01T09:00:00Z,27.8398,-97.0727,0.0,4.1,179.0,6.2,'11111222,11111222,11111222' 
TCOON,ioos:station:TCOON:009:1,2011-04-01T10:00:00Z,27.8398,-97.0727,0.0,3.0,172.0,4.5,'11111222,11111222,11111222' 
TCOON,ioos:station:TCOON:009:1,2011-04-01T11:00:00Z,27.8398,-97.0727,0.0,3.2,176.0,5.0,'11111222,11111222,11111222' 
TCOON,ioos:station:TCOON:009:1,2011-04-01T12:00:00Z,27.8398,-97.0727,0.0,3.2,178.0,4.6,'11111222,11111222,11111222' 
TCOON,ioos:station:TCOON:009:1,2011-04-01T13:00:00Z,27.8398,-97.0727,0.0,3.4,174.0,5.0,'11111222,11111222,11111222' 
TCOON,ioos:station:TCOON:009:1,2011-04-01T14:00:00Z,27.8398,-97.0727,0.0,4.8,173.0,6.1,'11111222,11111222,11111222' 
TCOON,ioos:station:TCOON:009:1,2011-04-01T15:00:00Z,27.8398,-97.0727,0.0,3.3,176.0,6.0,'11111222,11111222,11111222' 
TCOON,ioos:station:TCOON:009:1,2011-04-01T16:00:00Z,27.8398,-97.0727,0.0,4.6,180.0,7.3,'11111222,11111222,11111222' 
TCOON,ioos:station:TCOON:009:1,2011-04-01T17:00:00Z,27.8398,-97.0727,0.0,6.2,178.0,8.5,'11111222,11111222,11111222' 
TCOON,ioos:station:TCOON:009:1,2011-04-01T18:00:00Z,27.8398,-97.0727,0.0,4.4,150.0,5.6,'11111222,11111222,11111222' 
TCOON,ioos:station:TCOON:009:1,2011-04-01T19:00:00Z,27.8398,-97.0727,0.0,5.0,151.0,8.5,'11111222,11111222,11111222' 
TCOON,ioos:station:TCOON:009:1,2011-04-01T20:00:00Z,27.8398,-97.0727,0.0,5.2,143.0,8.4,'11111222,11111222,11111222' 
TCOON,ioos:station:TCOON:009:1,2011-04-01T21:00:00Z,27.8398,-97.0727,0.0,6.2,135.0,11.6,'11111222,11111222,11111222' 
TCOON,ioos:station:TCOON:009:1,2011-04-01T22:00:00Z,27.8398,-97.0727,0.0,5.1,125.0,8.5,'11111222,11111222,11111222' 
TCOON,ioos:station:TCOON:009:1,2011-04-01T23:00:00Z,27.8398,-97.0727,0.0,5.6,131.0,8.3,'11111222,11111222,11111222' 
TCOON,ioos:station:TCOON:009:1,2011-04-02T00:00:00Z,27.8398,-97.0727,0.0,4.9,127.0,8.6,'11111222,11111222,11111222' 
TCOON,ioos:station:TCOON:009:1,2011-04-02T01:00:00Z,27.8398,-97.0727,0.0,4.8,136.0,13.8,'11111222,11111222,11111222' 
TCOON,ioos:station:TCOON:009:1,2011-04-02T02:00:00Z,27.8398,-97.0727,0.0,5.3,135.0,8.4,'11111222,11111222,11111222' 
TCOON,ioos:station:TCOON:009:1,2011-04-02T03:00:00Z,27.8398,-97.0727,0.0,5.4,142.0,8.3,'11111222,11111222,11111222' 
TCOON,ioos:station:TCOON:009:1,2011-04-02T04:00:00Z,27.8398,-97.0727,0.0,3.5,148.0,6.2,'11111222,11111222,11111222' 
TCOON,ioos:station:TCOON:009:1,2011-04-02T05:00:00Z,27.8398,-97.0727,0.0,5.5,155.0,8.2,'11111222,11111222,11111222' 
TCOON,ioos:station:TCOON:009:1,2011-04-02T06:00:00Z,27.8398,-97.0727,0.0,5.7,153.0,8.1,'11111222,11111222,11111222' 
TCOON,ioos:station:TCOON:009:1,2011-04-02T07:00:00Z,27.8398,-97.0727,0.0,4.4,162.0,6.9,'11111222,11111222,11111222' 
TCOON,ioos:station:TCOON:009:1,2011-04-02T08:00:00Z,27.8398,-97.0727,0.0,6.3,173.0,8.2,'11111222,11111222,11111222' 
TCOON,ioos:station:TCOON:009:1,2011-04-02T09:00:00Z,27.8398,-97.0727,0.0,5.2,161.0,8.6,'11111222,11111222,11111222' 
TCOON,ioos:station:TCOON:009:1,2011-04-02T10:00:00Z,27.8398,-97.0727,0.0,2.4,148.0,2.6,'11111222,11111222,11111222' 
TCOON,ioos:station:TCOON:009:1,2011-04-02T11:00:00Z,27.8398,-97.0727,0.0,1.9,119.0,3.1,'11111222,11111222,11111222' 
TCOON,ioos:station:TCOON:009:1,2011-04-02T12:00:00Z,27.8398,-97.0727,0.0,2.9,125.0,3.8,'11111222,11111222,11111222' 
TCOON,ioos:station:TCOON:009:1,2011-04-02T13:00:00Z,27.8398,-97.0727,0.0,2.4,133.0,4.1,'11111222,11111222,11111222' 
TCOON,ioos:station:TCOON:009:1,2011-04-02T14:00:00Z,27.8398,-97.0727,0.0,3.1,139.0,5.3,'11111222,11111222,11111222' 
TCOON,ioos:station:TCOON:009:1,2011-04-02T15:00:00Z,27.8398,-97.0727,0.0,4.7,136.0,7.3,'11111222,11111222,11111222' 
TCOON,ioos:station:TCOON:009:1,2011-04-02T16:00:00Z,27.8398,-97.0727,0.0,5.2,131.0,7.6,'11111222,11111222,11111222' 
TCOON,ioos:station:TCOON:009:1,2011-04-02T17:00:00Z,27.8398,-97.0727,0.0,6.7,128.0,8.0,'11111222,11111222,11111222' 
TCOON,ioos:station:TCOON:009:1,2011-04-02T18:00:00Z,27.8398,-97.0727,0.0,5.4,114.0,8.0,'11111222,11111222,11111222' 
TCOON,ioos:station:TCOON:009:1,2011-04-02T19:00:00Z,27.8398,-97.0727,0.0,6.7,114.0,8.3,'11111222,11111222,11111222' 
TCOON,ioos:station:TCOON:009:1,2011-04-02T20:00:00Z,27.8398,-97.0727,0.0,6.3,115.0,10.7,'11111222,11111222,11111222' 
TCOON,ioos:station:TCOON:009:1,2011-04-02T21:00:00Z,27.8398,-97.0727,0.0,6.3,131.0,8.0,'11111222,11111222,11111222' 
TCOON,ioos:station:TCOON:009:1,2011-04-02T22:00:00Z,27.8398,-97.0727,0.0,5.4,123.0,8.9,'11111222,11111222,11111222' 
TCOON,ioos:station:TCOON:009:1,2011-04-02T23:00:00Z,27.8398,-97.0727,0.0,5.5,122.0,7.7,'11111222,11111222,11111222' 
TCOON,ioos:station:TCOON:009:1,2011-04-03T00:00:00Z,27.8398,-97.0727,0.0,5.0,113.0,6.5,'11111222,11111222,11111222' 
TCOON,ioos:station:TCOON:009:1,2011-04-03T01:00:00Z,27.8398,-97.0727,0.0,5.5,120.0,7.2,'11111222,11111222,11111222' 
TCOON,ioos:station:TCOON:009:1,2011-04-03T02:00:00Z,27.8398,-97.0727,0.0,5.0,121.0,7.5,'11111222,11111222,11111222' 
TCOON,ioos:station:TCOON:009:1,2011-04-03T03:00:00Z,27.8398,-97.0727,0.0,4.9,121.0,6.6,'11111222,11111222,11111222' 
TCOON,ioos:station:TCOON:009:1,2011-04-03T04:00:00Z,27.8398,-97.0727,0.0,3.7,132.0,5.8,'11111222,11111222,11111222' 
TCOON,ioos:station:TCOON:009:1,2011-04-03T05:00:00Z,27.8398,-97.0727,0.0,3.1,143.0,5.9,'11111222,11111222,11111222' 
TCOON,ioos:station:TCOON:009:1,2011-04-03T06:00:00Z,27.8398,-97.0727,0.0,4.3,136.0,8.6,'11111222,11111222,11111222' 
TCOON,ioos:station:TCOON:009:1,2011-04-03T07:00:00Z,27.8398,-97.0727,0.0,4.5,139.0,5.7,'11111222,11111222,11111222' 
TCOON,ioos:station:TCOON:009:1,2011-04-03T08:00:00Z,27.8398,-97.0727,0.0,4.1,145.0,6.8,'11111222,11111222,11111222' 
TCOON,ioos:station:TCOON:009:1,2011-04-03T09:00:00Z,27.8398,-97.0727,0.0,3.4,151.0,5.9,'11111222,11111222,11111222' 
TCOON,ioos:station:TCOON:009:1,2011-04-03T10:00:00Z,27.8398,-97.0727,0.0,3.1,147.0,4.4,'11111222,11111222,11111222' 
TCOON,ioos:station:TCOON:009:1,2011-04-03T11:00:00Z,27.8398,-97.0727,0.0,1.9,140.0,4.7,'11111222,11111222,11111222' 
TCOON,ioos:station:TCOON:009:1,2011-04-03T12:00:00Z,27.8398,-97.0727,0.0,3.9,156.0,5.4,'11111222,11111222,11111222' 
TCOON,ioos:station:TCOON:009:1,2011-04-03T13:00:00Z,27.8398,-97.0727,0.0,3.3,134.0,5.1,'11111222,11111222,11111222' 
TCOON,ioos:station:TCOON:009:1,2011-04-03T14:00:00Z,27.8398,-97.0727,0.0,2.6,128.0,4.6,'11111222,11111222,11111222' 
TCOON,ioos:station:TCOON:009:1,2011-04-03T15:00:00Z,27.8398,-97.0727,0.0,3.8,136.0,5.8,'11111222,11111222,11111222' 
TCOON,ioos:station:TCOON:009:1,2011-04-03T16:00:00Z,27.8398,-97.0727,0.0,6.0,123.0,8.0,'11111222,11111222,11111222' 
TCOON,ioos:station:TCOON:009:1,2011-04-03T17:00:00Z,27.8398,-97.0727,0.0,4.5,135.0,7.2,'11111222,11111222,11111222' 
TCOON,ioos:station:TCOON:009:1,2011-04-03T18:00:00Z,27.8398,-97.0727,0.0,5.8,126.0,8.5,'11111222,11111222,11111222' 
TCOON,ioos:station:TCOON:009:1,2011-04-03T19:00:00Z,27.8398,-97.0727,0.0,5.1,126.0,7.1,'11111222,11111222,11111222' 
TCOON,ioos:station:TCOON:009:1,2011-04-03T20:00:00Z,27.8398,-97.0727,0.0,4.1,131.0,6.8,'11111222,11111222,11111222' 
TCOON,ioos:station:TCOON:009:1,2011-04-03T21:00:00Z,27.8398,-97.0727,0.0,5.1,122.0,9.0,'11111222,11111222,11111222' 
TCOON,ioos:station:TCOON:009:1,2011-04-03T22:00:00Z,27.8398,-97.0727,0.0,6.3,120.0,9.5,'11111222,11111222,11111222' 
TCOON,ioos:station:TCOON:009:1,2011-04-03T23:00:00Z,27.8398,-97.0727,0.0,6.1,122.0,9.0,'11111222,11111222,11111222' 
TCOON,ioos:station:TCOON:009:1,2011-04-04T00:00:00Z,27.8398,-97.0727,0.0,5.4,126.0,8.8,'11111222,11111222,11111222' 
TCOON,ioos:station:TCOON:009:1,2011-04-04T01:00:00Z,27.8398,-97.0727,0.0,5.4,136.0,7.4,'11111222,11111222,11111222' 
TCOON,ioos:station:TCOON:009:1,2011-04-04T02:00:00Z,27.8398,-97.0727,0.0,4.8,140.0,8.0,'11111222,11111222,11111222' 
TCOON,ioos:station:TCOON:009:1,2011-04-04T03:00:00Z,27.8398,-97.0727,0.0,5.0,151.0,7.4,'11111222,11111222,11111222' 
TCOON,ioos:station:TCOON:009:1,2011-04-04T04:00:00Z,27.8398,-97.0727,0.0,4.0,149.0,7.3,'11111222,11111222,11111222' 
TCOON,ioos:station:TCOON:009:1,2011-04-04T05:00:00Z,27.8398,-97.0727,0.0,6.0,160.0,10.5,'11111222,11111222,11111222' 
TCOON,ioos:station:TCOON:009:1,2011-04-04T06:00:00Z,27.8398,-97.0727,0.0,5.9,160.0,9.5,'11111222,11111222,11111222' 
TCOON,ioos:station:TCOON:009:1,2011-04-04T07:00:00Z,27.8398,-97.0727,0.0,8.0,162.0,12.0,'11111222,11111222,11111222' 
TCOON,ioos:station:TCOON:009:1,2011-04-04T08:00:00Z,27.8398,-97.0727,0.0,8.5,173.0,12.9,'11111222,11111222,11111222' 
TCOON,ioos:station:TCOON:009:1,2011-04-04T09:00:00Z,27.8398,-97.0727,0.0,7.2,175.0,11.7,'11111222,11111222,11111222' 
TCOON,ioos:station:TCOON:009:1,2011-04-04T10:00:00Z,27.8398,-97.0727,0.0,8.3,177.0,12.5,'11111222,11111222,11111222' 
TCOON,ioos:station:TCOON:009:1,2011-04-04T11:00:00Z,27.8398,-97.0727,0.0,7.3,175.0,11.6,'11111222,11111222,11111222' 
TCOON,ioos:station:TCOON:009:1,2011-04-04T12:00:00Z,27.8398,-97.0727,0.0,6.3,173.0,8.7,'11111222,11111222,11111222' 
TCOON,ioos:station:TCOON:009:1,2011-04-04T13:00:00Z,27.8398,-97.0727,0.0,6.7,165.0,17.8,'11111222,11111222,11111222' 
TCOON,ioos:station:TCOON:009:1,2011-04-04T14:00:00Z,27.8398,-97.0727,0.0,5.4,193.0,10.2,'11111222,11111222,11111222' 
TCOON,ioos:station:TCOON:009:1,2011-04-04T15:00:00Z,27.8398,-97.0727,0.0,4.7,204.0,8.0,'11111222,11111222,11111222' 
TCOON,ioos:station:TCOON:009:1,2011-04-04T16:00:00Z,27.8398,-97.0727,0.0,6.6,195.0,10.2,'11111222,11111222,11111222' 
TCOON,ioos:station:TCOON:009:1,2011-04-04T17:00:00Z,27.8398,-97.0727,0.0,5.7,188.0,8.3,'11111222,11111222,11111222' 
TCOON,ioos:station:TCOON:009:1,2011-04-04T18:00:00Z,27.8398,-97.0727,0.0,4.9,180.0,7.3,'11111222,11111222,11111222' 
TCOON,ioos:station:TCOON:009:1,2011-04-04T19:00:00Z,27.8398,-97.0727,0.0,4.4,180.0,5.4,'11111222,11111222,11111222' 
TCOON,ioos:station:TCOON:009:1,2011-04-04T20:00:00Z,27.8398,-97.0727,0.0,9.7,14.0,99.0,'11111222,11111222,11144222' 
TCOON,ioos:station:TCOON:009:1,2011-04-04T21:00:00Z,27.8398,-97.0727,0.0,11.8,2.0,14.5,'11111222,11111222,11111222' 
TCOON,ioos:station:TCOON:009:1,2011-04-04T22:00:00Z,27.8398,-97.0727,0.0,11.1,359.0,15.4,'11111222,11111222,11111222' 
TCOON,ioos:station:TCOON:009:1,2011-04-04T23:00:00Z,27.8398,-97.0727,0.0,12.0,359.0,14.1,'11111222,11111222,11111222' 
TCOON,ioos:station:TCOON:009:1,2011-04-05T00:00:00Z,27.8398,-97.0727,0.0,10.6,4.0,13.2,'11111222,11111222,11111222' 
TCOON,ioos:station:TCOON:009:1,2011-04-05T01:00:00Z,27.8398,-97.0727,0.0,10.0,1.0,21.2,'11111222,11111222,11111222' 
TCOON,ioos:station:TCOON:009:1,2011-04-05T02:00:00Z,27.8398,-97.0727,0.0,8.3,4.0,10.9,'11111222,11111222,11111222' 
TCOON,ioos:station:TCOON:009:1,2011-04-05T03:00:00Z,27.8398,-97.0727,0.0,7.0,6.0,8.8,'11111222,11111222,11111222' 
TCOON,ioos:station:TCOON:009:1,2011-04-05T04:00:00Z,27.8398,-97.0727,0.0,9.2,12.0,12.8,'11111222,11111222,11111222' 
TCOON,ioos:station:TCOON:009:1,2011-04-05T05:00:00Z,27.8398,-97.0727,0.0,9.3,25.0,12.5,'11111222,11111222,11111222' 
TCOON,ioos:station:TCOON:009:1,2011-04-05T06:00:00Z,27.8398,-97.0727,0.0,7.9,28.0,12.2,'11111222,11111222,11111222' 
TCOON,ioos:station:TCOON:009:1,2011-04-05T07:00:00Z,27.8398,-97.0727,0.0,6.6,32.0,8.7,'11111222,11111222,11111222' 
TCOON,ioos:station:TCOON:009:1,2011-04-05T08:00:00Z,27.8398,-97.0727,0.0,5.9,34.0,7.5,'11111222,11111222,11111222' 
TCOON,ioos:station:TCOON:009:1,2011-04-05T09:00:00Z,27.8398,-97.0727,0.0,6.4,29.0,7.4,'11111222,11111222,11111222' 
TCOON,ioos:station:TCOON:009:1,2011-04-05T10:00:00Z,27.8398,-97.0727,0.0,5.7,26.0,6.8,'11111222,11111222,11111222' 
TCOON,ioos:station:TCOON:009:1,2011-04-05T11:00:00Z,27.8398,-97.0727,0.0,5.0,25.0,7.3,'11111222,11111222,11111222' 
TCOON,ioos:station:TCOON:009:1,2011-04-05T12:00:00Z,27.8398,-97.0727,0.0,6.3,24.0,7.4,'11111222,11111222,11111222' 
TCOON,ioos:station:TCOON:009:1,2011-04-05T13:00:00Z,27.8398,-97.0727,0.0,5.4,26.0,8.0,'11111222,11111222,11111222' 
TCOON,ioos:station:TCOON:009:1,2011-04-05T14:00:00Z,27.8398,-97.0727,0.0,4.9,46.0,7.6,'11111222,11111222,11111222' 
TCOON,ioos:station:TCOON:009:1,2011-04-05T15:00:00Z,27.8398,-97.0727,0.0,5.2,64.0,8.5,'11111222,11111222,11111222' 
TCOON,ioos:station:TCOON:009:1,2011-04-05T16:00:00Z,27.8398,-97.0727,0.0,3.1,82.0,5.5,'11111222,11111222,11111222' 
TCOON,ioos:station:TCOON:009:1,2011-04-05T17:00:00Z,27.8398,-97.0727,0.0,4.7,63.0,5.6,'11111222,11111222,11111222' 
TCOON,ioos:station:TCOON:009:1,2011-04-05T18:00:00Z,27.8398,-97.0727,0.0,3.1,74.0,5.5,'11111222,11111222,11111222' 
TCOON,ioos:station:TCOON:009:1,2011-04-05T19:00:00Z,27.8398,-97.0727,0.0,4.8,66.0,5.6,'11111222,11111222,11111222' 
TCOON,ioos:station:TCOON:009:1,2011-04-05T20:00:00Z,27.8398,-97.0727,0.0,3.7,84.0,6.6,'11111222,11111222,11111222' 
TCOON,ioos:station:TCOON:009:1,2011-04-05T21:00:00Z,27.8398,-97.0727,0.0,4.1,112.0,6.1,'11111222,11111222,11111222' 
TCOON,ioos:station:TCOON:009:1,2011-04-05T22:00:00Z,27.8398,-97.0727,0.0,5.5,89.0,7.5,'11111222,11111222,11111222' 
TCOON,ioos:station:TCOON:009:1,2011-04-05T23:00:00Z,27.8398,-97.0727,0.0,5.8,95.0,14.4,'11111222,11111222,11111222' 
TCOON,ioos:station:TCOON:009:1,2011-04-06T00:00:00Z,27.8398,-97.0727,0.0,3.3,136.0,6.5,'11111222,11111222,11111222' 
TCOON,ioos:station:TCOON:009:1,2011-04-06T01:00:00Z,27.8398,-97.0727,0.0,5.1,118.0,6.6,'11111222,11111222,11111222' 
TCOON,ioos:station:TCOON:009:1,2011-04-06T02:00:00Z,27.8398,-97.0727,0.0,3.7,137.0,6.1,'11111222,11111222,11111222' 
TCOON,ioos:station:TCOON:009:1,2011-04-06T03:00:00Z,27.8398,-97.0727,0.0,5.2,144.0,7.8,'11111222,11111222,11111222' 
TCOON,ioos:station:TCOON:009:1,2011-04-06T04:00:00Z,27.8398,-97.0727,0.0,5.0,151.0,6.8,'11111222,11111222,11111222' 
TCOON,ioos:station:TCOON:009:1,2011-04-06T05:00:00Z,27.8398,-97.0727,0.0,4.5,151.0,7.5,'11111222,11111222,11111222' 
TCOON,ioos:station:TCOON:009:1,2011-04-06T06:00:00Z,27.8398,-97.0727,0.0,4.1,152.0,6.3,'11111222,11111222,11111222' 
TCOON,ioos:station:TCOON:009:1,2011-04-06T07:00:00Z,27.8398,-97.0727,0.0,5.2,162.0,8.1,'11111222,11111222,11111222' 
TCOON,ioos:station:TCOON:009:1,2011-04-06T08:00:00Z,27.8398,-97.0727,0.0,3.3,159.0,7.4,'11111222,11111222,11111222' 
TCOON,ioos:station:TCOON:009:1,2011-04-06T09:00:00Z,27.8398,-97.0727,0.0,5.4,152.0,9.7,'11111222,11111222,11111222' 
TCOON,ioos:station:TCOON:009:1,2011-04-06T10:00:00Z,27.8398,-97.0727,0.0,3.8,153.0,7.1,'11111222,11111222,11111222' 
TCOON,ioos:station:TCOON:009:1,2011-04-06T11:00:00Z,27.8398,-97.0727,0.0,4.4,159.0,7.6,'11111222,11111222,11111222' 
TCOON,ioos:station:TCOON:009:1,2011-04-06T12:00:00Z,27.8398,-97.0727,0.0,5.2,164.0,7.8,'11111222,11111222,11111222' 
TCOON,ioos:station:TCOON:009:1,2011-04-06T13:00:00Z,27.8398,-97.0727,0.0,4.7,164.0,7.6,'11111222,11111222,11111222' 
TCOON,ioos:station:TCOON:009:1,2011-04-06T14:00:00Z,27.8398,-97.0727,0.0,5.3,157.0,7.4,'11111222,11111222,11111222' 
TCOON,ioos:station:TCOON:009:1,2011-04-06T15:00:00Z,27.8398,-97.0727,0.0,5.1,157.0,7.9,'11111222,11111222,11111222' 
TCOON,ioos:station:TCOON:009:1,2011-04-06T16:00:00Z,27.8398,-97.0727,0.0,4.6,155.0,8.5,'11111222,11111222,11111222' 
TCOON,ioos:station:TCOON:009:1,2011-04-06T17:00:00Z,27.8398,-97.0727,0.0,5.4,147.0,8.3,'11111222,11111222,11111222' 
TCOON,ioos:station:TCOON:009:1,2011-04-06T18:00:00Z,27.8398,-97.0727,0.0,6.9,147.0,9.3,'11111222,11111222,11111222' 
TCOON,ioos:station:TCOON:009:1,2011-04-06T19:00:00Z,27.8398,-97.0727,0.0,4.8,143.0,8.5,'11111222,11111222,11111222' 
TCOON,ioos:station:TCOON:009:1,2011-04-06T20:00:00Z,27.8398,-97.0727,0.0,4.5,156.0,8.6,'11111222,11111222,11111222' 
TCOON,ioos:station:TCOON:009:1,2011-04-06T21:00:00Z,27.8398,-97.0727,0.0,5.4,139.0,8.7,'11111222,11111222,11111222' 
TCOON,ioos:station:TCOON:009:1,2011-04-06T22:00:00Z,27.8398,-97.0727,0.0,5.3,142.0,7.5,'11111222,11111222,11111222' 
TCOON,ioos:station:TCOON:009:1,2011-04-06T23:00:00Z,27.8398,-97.0727,0.0,3.6,145.0,7.5,'11111222,11111222,11111222' 
TCOON,ioos:station:TCOON:009:1,2011-04-07T00:00:00Z,27.8398,-97.0727,0.0,4.9,139.0,8.6,'11111222,11111222,11111222' 
TCOON,ioos:station:TCOON:009:1,2011-04-07T01:00:00Z,27.8398,-97.0727,0.0,4.5,138.0,8.0,'11111222,11111222,11111222' 
TCOON,ioos:station:TCOON:009:1,2011-04-07T02:00:00Z,27.8398,-97.0727,0.0,4.9,137.0,7.1,'11111222,11111222,11111222' 
TCOON,ioos:station:TCOON:009:1,2011-04-07T03:00:00Z,27.8398,-97.0727,0.0,5.0,141.0,7.6,'11111222,11111222,11111222' 
TCOON,ioos:station:TCOON:009:1,2011-04-07T04:00:00Z,27.8398,-97.0727,0.0,6.4,134.0,9.1,'11111222,11111222,11111222' 
TCOON,ioos:station:TCOON:009:1,2011-04-07T05:00:00Z,27.8398,-97.0727,0.0,4.8,144.0,15.1,'11111222,11111222,11111222' 
TCOON,ioos:station:TCOON:009:1,2011-04-07T06:00:00Z,27.8398,-97.0727,0.0,4.2,149.0,7.9,'11111222,11111222,11111222' 
TCOON,ioos:station:TCOON:009:1,2011-04-07T07:00:00Z,27.8398,-97.0727,0.0,5.0,155.0,8.5,'11111222,11111222,11111222' 
TCOON,ioos:station:TCOON:009:1,2011-04-07T08:00:00Z,27.8398,-97.0727,0.0,5.2,160.0,9.5,'11111222,11111222,11111222' 
TCOON,ioos:station:TCOON:009:1,2011-04-07T09:00:00Z,27.8398,-97.0727,0.0,5.1,160.0,7.7,'11111222,11111222,11111222' 
TCOON,ioos:station:TCOON:009:1,2011-04-07T10:00:00Z,27.8398,-97.0727,0.0,3.6,156.0,6.9,'11111222,11111222,11111222' 
TCOON,ioos:station:TCOON:009:1,2011-04-07T11:00:00Z,27.8398,-97.0727,0.0,4.7,167.0,6.8,'11111222,11111222,11111222' 
TCOON,ioos:station:TCOON:009:1,2011-04-07T12:00:00Z,27.8398,-97.0727,0.0,4.1,167.0,6.8,'11111222,11111222,11111222' 
TCOON,ioos:station:TCOON:009:1,2011-04-07T13:00:00Z,27.8398,-97.0727,0.0,3.7,166.0,5.5,'11111222,11111222,11111222' 
TCOON,ioos:station:TCOON:009:1,2011-04-07T14:00:00Z,27.8398,-97.0727,0.0,3.1,154.0,6.1,'11111222,11111222,11111222' 
TCOON,ioos:station:TCOON:009:1,2011-04-07T15:00:00Z,27.8398,-97.0727,0.0,3.3,147.0,6.5,'11111222,11111222,11111222' 
TCOON,ioos:station:TCOON:009:1,2011-04-07T16:00:00Z,27.8398,-97.0727,0.0,3.9,137.0,7.1,'11111222,11111222,11111222' 
TCOON,ioos:station:TCOON:009:1,2011-04-07T17:00:00Z,27.8398,-97.0727,0.0,4.5,148.0,7.5,'11111222,11111222,11111222' 
TCOON,ioos:station:TCOON:009:1,2011-04-07T18:00:00Z,27.8398,-97.0727,0.0,3.7,145.0,7.5,'11111222,11111222,11111222' 
TCOON,ioos:station:TCOON:009:1,2011-04-07T19:00:00Z,27.8398,-97.0727,0.0,4.7,142.0,8.5,'11111222,11111222,11111222' 
TCOON,ioos:station:TCOON:009:1,2011-04-07T20:00:00Z,27.8398,-97.0727,0.0,5.8,145.0,9.3,'11111222,11111222,11111222' 
TCOON,ioos:station:TCOON:009:1,2011-04-07T21:00:00Z,27.8398,-97.0727,0.0,8.1,143.0,10.5,'11111222,11111222,11111222' 
TCOON,ioos:station:TCOON:009:1,2011-04-07T22:00:00Z,27.8398,-97.0727,0.0,5.9,143.0,11.3,'11111222,11111222,11111222' 
TCOON,ioos:station:TCOON:009:1,2011-04-07T23:00:00Z,27.8398,-97.0727,0.0,6.4,137.0,10.2,'11111222,11111222,11111222' 
TCOON,ioos:station:TCOON:009:1,2011-04-08T00:00:00Z,27.8398,-97.0727,0.0,6.8,136.0,9.6,'11111222,11111222,11111222' 
TCOON,ioos:station:TCOON:009:1,2011-04-08T01:00:00Z,27.8398,-97.0727,0.0,7.1,139.0,9.6,'11111222,11111222,11111222' 
TCOON,ioos:station:TCOON:009:1,2011-04-08T02:00:00Z,27.8398,-97.0727,0.0,6.0,133.0,9.7,'11111222,11111222,11111222' 
TCOON,ioos:station:TCOON:009:1,2011-04-08T03:00:00Z,27.8398,-97.0727,0.0,6.3,136.0,9.2,'11111222,11111222,11111222' 
TCOON,ioos:station:TCOON:009:1,2011-04-08T04:00:00Z,27.8398,-97.0727,0.0,5.6,144.0,8.4,'11111222,11111222,11111222' 
TCOON,ioos:station:TCOON:009:1,2011-04-08T05:00:00Z,27.8398,-97.0727,0.0,6.1,127.0,7.6,'11111222,11111222,11111222' 
TCOON,ioos:station:TCOON:009:1,2011-04-08T06:00:00Z,27.8398,-97.0727,0.0,4.4,144.0,7.5,'11111222,11111222,11111222' 
TCOON,ioos:station:TCOON:009:1,2011-04-08T07:00:00Z,27.8398,-97.0727,0.0,4.4,156.0,6.8,'11111222,11111222,11111222' 
TCOON,ioos:station:TCOON:009:1,2011-04-08T08:00:00Z,27.8398,-97.0727,0.0,2.8,156.0,6.6,'11111222,11111222,11111222' 
TCOON,ioos:station:TCOON:009:1,2011-04-08T09:00:00Z,27.8398,-97.0727,0.0,5.6,157.0,8.9,'11111222,11111222,11111222' 
TCOON,ioos:station:TCOON:009:1,2011-04-08T10:00:00Z,27.8398,-97.0727,0.0,5.0,156.0,7.9,'11111222,11111222,11111222' 
TCOON,ioos:station:TCOON:009:1,2011-04-08T11:00:00Z,27.8398,-97.0727,0.0,5.3,167.0,8.1,'11111222,11111222,11111222' 
TCOON,ioos:station:TCOON:009:1,2011-04-08T12:00:00Z,27.8398,-97.0727,0.0,4.6,163.0,8.0,'11111222,11111222,11111222' 
TCOON,ioos:station:TCOON:009:1,2011-04-08T13:00:00Z,27.8398,-97.0727,0.0,4.8,156.0,11.6,'11111222,11111222,11111222' 
TCOON,ioos:station:TCOON:009:1,2011-04-08T14:00:00Z,27.8398,-97.0727,0.0,5.9,148.0,8.8,'11111222,11111222,11111222' 
TCOON,ioos:station:TCOON:009:1,2011-04-08T15:00:00Z,27.8398,-97.0727,0.0,4.5,142.0,9.2,'11111222,11111222,11111222' 
TCOON,ioos:station:TCOON:009:1,2011-04-08T16:00:00Z,27.8398,-97.0727,0.0,4.4,154.0,6.5,'11111222,11111222,11111222' 
TCOON,ioos:station:TCOON:009:1,2011-04-08T17:00:00Z,27.8398,-97.0727,0.0,6.0,141.0,7.1,'11111222,11111222,11111222' 
TCOON,ioos:station:TCOON:009:1,2011-04-08T18:00:00Z,27.8398,-97.0727,0.0,4.9,130.0,8.1,'11111222,11111222,11111222' 
TCOON,ioos:station:TCOON:009:1,2011-04-08T19:00:00Z,27.8398,-97.0727,0.0,7.3,130.0,9.7,'11111222,11111222,11111222' 
TCOON,ioos:station:TCOON:009:1,2011-04-08T20:00:00Z,27.8398,-97.0727,0.0,5.3,134.0,8.6,'11111222,11111222,11111222' 
TCOON,ioos:station:TCOON:009:1,2011-04-08T21:00:00Z,27.8398,-97.0727,0.0,5.1,132.0,7.3,'11111222,11111222,11111222' 
TCOON,ioos:station:TCOON:009:1,2011-04-08T22:00:00Z,27.8398,-97.0727,0.0,6.4,129.0,8.9,'11111222,11111222,11111222' 
TCOON,ioos:station:TCOON:009:1,2011-04-08T23:00:00Z,27.8398,-97.0727,0.0,4.9,138.0,9.1,'11111222,11111222,11111222' 
TCOON,ioos:station:TCOON:009:1,2011-04-09T00:00:00Z,27.8398,-97.0727,0.0,5.1,134.0,8.1,'11111222,11111222,11111222' 
TCOON,ioos:station:TCOON:009:1,2011-04-09T01:00:00Z,27.8398,-97.0727,0.0,6.0,129.0,8.3,'11111222,11111222,11111222' 
TCOON,ioos:station:TCOON:009:1,2011-04-09T02:00:00Z,27.8398,-97.0727,0.0,4.1,133.0,8.8,'11111222,11111222,11111222' 
TCOON,ioos:station:TCOON:009:1,2011-04-09T03:00:00Z,27.8398,-97.0727,0.0,4.8,135.0,10.9,'11111222,11111222,11111222' 
TCOON,ioos:station:TCOON:009:1,2011-04-09T04:00:00Z,27.8398,-97.0727,0.0,4.1,139.0,7.8,'11111222,11111222,11111222' 
TCOON,ioos:station:TCOON:009:1,2011-04-09T05:00:00Z,27.8398,-97.0727,0.0,4.6,143.0,8.6,'11111222,11111222,11111222' 
TCOON,ioos:station:TCOON:009:1,2011-04-09T06:00:00Z,27.8398,-97.0727,0.0,5.5,152.0,9.4,'11111222,11111222,11111222' 
TCOON,ioos:station:TCOON:009:1,2011-04-09T07:00:00Z,27.8398,-97.0727,0.0,6.2,152.0,9.5,'11111222,11111222,11111222' 
TCOON,ioos:station:TCOON:009:1,2011-04-09T08:00:00Z,27.8398,-97.0727,0.0,6.3,152.0,9.0,'11111222,11111222,11111222' 
TCOON,ioos:station:TCOON:009:1,2011-04-09T09:00:00Z,27.8398,-97.0727,0.0,5.0,155.0,8.8,'11111222,11111222,11111222' 
TCOON,ioos:station:TCOON:009:1,2011-04-09T10:00:00Z,27.8398,-97.0727,0.0,3.9,157.0,6.8,'11111222,11111222,11111222' 
TCOON,ioos:station:TCOON:009:1,2011-04-09T11:00:00Z,27.8398,-97.0727,0.0,3.6,160.0,6.8,'11111222,11111222,11111222' 
TCOON,ioos:station:TCOON:009:1,2011-04-09T12:00:00Z,27.8398,-97.0727,0.0,4.8,152.0,7.2,'11111222,11111222,11111222' 